Weather History for KDEW - April, 2013

Change the Weather History Date:

Sunday, April 28, 2013

  Actual Average Record
Temperature  
Mean Temperature 48 °F 47 °F  
Max Temperature 61 °F 62 °F 78 °F (2015)
Min Temperature 34 °F 33 °F 25 °F (2011)
Degree Days  
Heating Degree Days 17 18  
Month to date heating degree days 517 571  
Since 1 July heating degree days 6422 6778  
Cooling Degree Days 0 0  
Month to date cooling degree days 0 0  
Year to date cooling degree days 0 0  
Moisture  
Dew Point 32 °F    
Average Humidity 59    
Maximum Humidity 89    
Minimum Humidity 28    
Precipitation  
Precipitation 0.00 in 0.04 in 0.28 in (2001)
Month to date precipitation 1.74 1.50  
Year to date precipitation 5.22 7.82  
Sea Level Pressure  
Sea Level Pressure 29.97 in    
Wind  
Wind Speed 12 mph (SSW)    
Max Wind Speed 28 mph    
Max Gust Speed 36 mph    
Visibility 10 miles    
Events      
T = Trace of Precipitation, MM = Missing Value Source: NWS Daily Summary

Daily Weather History Graph

Daily Weather History Graph

Search for Another Location

Airport or City:

Trip Planner

Search our weather history database for the weather conditions in past years. The results will help you decide how hot, cold, wet, or windy it might be!

Date:

Astronomy

Apr. 28, 2013 Rise Set
Actual Time 5:36 AM PDT 7:59 PM PDT
Civil Twilight 5:01 AM PDT 8:33 PM PDT
Nautical Twilight 4:18 AM PDT 9:16 PM PDT
Astronomical Twilight 3:29 AM PDT 10:06 PM PDT
Moon 11:41 PM PDT (4/28) 7:48 AM PDT (4/28)
Length of Visible Light 15h 31m
Length of Day
14h 23m
Waning Gibbous, 88% of the Moon is Illuminated
Apr 28
Waning Gibbous
May 2
Last Quarter
May 9
New
May 17
First Quarter
May 24
Full

Hourly Weather History & Observations

Time (PDT) Temp. Windchill Dew Point Humidity Pressure Visibility Wind Dir Wind Speed Gust Speed Precip Events Conditions
12:53 AM 48.0 °F - 35.1 °F 61% 30.01 in 10.0 mi East 4.6 mph - N/A   Mostly Cloudy
1:53 AM 44.1 °F 40.1 °F 35.1 °F 71% 30.02 in 10.0 mi South 6.9 mph - N/A   Clear
2:53 AM 42.1 °F - 34.0 °F 73% 30.04 in 10.0 mi Calm Calm - N/A   Mostly Cloudy
3:53 AM 41.0 °F - 34.0 °F 76% 30.04 in 10.0 mi Calm Calm - N/A   Mostly Cloudy
4:53 AM 39.9 °F - 34.0 °F 79% 30.04 in 10.0 mi Calm Calm - N/A   Clear
6:53 AM 42.1 °F - 37.0 °F 82% 30.05 in 10.0 mi Calm Calm - N/A   Overcast
7:53 AM 45.0 °F 41.8 °F 37.0 °F 74% 30.06 in 10.0 mi South 5.8 mph - N/A   Overcast
8:53 AM 46.9 °F - 37.0 °F 68% 30.07 in 10.0 mi South 8.1 mph - N/A   Overcast
9:53 AM 50.0 °F - 37.9 °F 63% 30.06 in 10.0 mi SSW 8.1 mph - N/A   Mostly Cloudy
10:53 AM 55.0 °F - 37.9 °F 53% 30.05 in 10.0 mi South 8.1 mph - N/A   Scattered Clouds
11:53 AM 59.0 °F - 34.0 °F 39% 30.03 in 10.0 mi SW 15.0 mph 23.0 mph N/A   Mostly Cloudy
12:53 PM 57.9 °F - 33.1 °F 39% 30.02 in 10.0 mi SSW 18.4 mph 25.3 mph N/A   Mostly Cloudy
1:53 PM 57.0 °F - 30.9 °F 37% 30.00 in 10.0 mi SW 18.4 mph 26.5 mph N/A   Overcast
2:53 PM 57.9 °F - 32.0 °F 37% 29.99 in 10.0 mi SW 19.6 mph 27.6 mph N/A   Overcast
3:53 PM 60.1 °F - 30.9 °F 33% 29.96 in 10.0 mi SSW 23.0 mph - N/A   Mostly Cloudy
4:53 PM 59.0 °F - 28.9 °F 32% 29.93 in 10.0 mi SW 21.9 mph - N/A   Mostly Cloudy
5:53 PM 59.0 °F - 28.0 °F 31% 29.92 in 10.0 mi SSW 24.2 mph 35.7 mph N/A   Clear
6:53 PM 57.9 °F - 25.0 °F 28% 29.88 in 10.0 mi SW 18.4 mph 33.4 mph N/A   Clear
7:53 PM 55.9 °F - 27.0 °F 33% 29.87 in 10.0 mi SW 17.3 mph 24.2 mph N/A   Scattered Clouds
8:53 PM 55.0 °F - 24.1 °F 30% 29.86 in 10.0 mi SW 17.3 mph - N/A   Partly Cloudy
9:53 PM 53.1 °F - 27.0 °F 37% 29.84 in 10.0 mi SSW 13.8 mph - N/A   Clear
10:53 PM 51.1 °F - 28.9 °F 43% 29.82 in 10.0 mi SSW 13.8 mph - N/A   Scattered Clouds
11:53 PM 50.0 °F - 30.0 °F 46% 29.81 in 10.0 mi SSW 11.5 mph - N/A   Overcast